Lid_Strength_Index
6 6 5 5 5 5 7 6 9 6 5 7 7 9 9 11 10 9 10 9 10 10 11 10 10 11 11 10 9 10 9 9 11 11 9 8 9 10 10 12 13 11 12 12
6 5 5 5 5 6 6 7 7 5 6 10 10 10 12 11 11 11 11 11 11 10 11 12 10 11 11 10 9 10 9 10 13 12 10 9 10 10 10 10 10 13 13 12
6 5 5 5 5 6 6 8 9 7 7 8 9 10 11 13 11 12 11 12 11 11 12 11 12 11 12 11 11 10 10 10 11 13 13 11 11 11 11 11 13 12 12 11
6 5 5 6 6 7 6 8 10 10 9 10 9 10 11 12 13 12 11 12 12 12 13 13 13 12 12 11 11 11 10 13 12 11 11 11 12 12 11 12 11 13 11 12
6 6 6 6 6 6 6 8 9 9 11 11 10 11 11 12 13 12 13 13 13 13 13 13 14 14 13 14 12 12 12 14 14 14 13 13 14 13 12 13 12 12 12 12
5 5 5 6 6 6 7 8 8 8 13 11 11 12 12 12 12 13 12 12 13 14 14 12 12 12 12 12 13 14 14 14 15 16 14 14 16 13 13 13 12 12 14 12
6 6 5 6 6 6 6 8 7 9 12 11 12 13 12 13 13 13 13 12 13 12 10 11 11 11 12 12 12 11 14 14 14 15 14 18 14 11 11 12 12 11 11 11
6 5 6 6 6 6 7 7 7 8 12 12 13 12 12 12 12 12 13 12 11 10 11 13 15 14 14 13 12 12 12 13 14 16 15 13 14 12 12 13 12 10 11 10
6 6 6 6 6 7 7 8 7 7 11 12 11 12 12 13 13 13 13 11 10 10 12 14 17 16 15 16 15 12 12 12 13 14 17 18 13 11 10 10 15 10 10 10
6 6 6 6 6 7 6 8 7 7 11 11 10 12 12 11 12 13 13 12 12 11 13 15 15 15 13 16 16 15 14 13 15 14 15 14 11 10 9 16 14 10 9 10
6 6 6 6 6 7 7 8 7 7 10 10 10 10 12 12 11 13 12 13 13 12 14 14 14 14 14 15 13 14 15 16 15 14 16 17 9 10 13 11 9 9 9 9
6 6 6 6 6 6 7 9 7 6 8 9 8 9 9 9 10 11 11 12 12 12 13 13 13 14 13 15 16 12 16 13 14 14 13 10 8 9 8 9 10 9 9 8
6 6 6 6 6 6 6 7 7 7 10 10 10 11 8 7 8 8 11 11 10 11 10 11 11 14 13 15 15 14 12 11 14 14 12 11 10 9 9 8 8 7 7 7
6 6 6 6 6 5 5 7 6 7 9 11 12 8 10 8 8 8 8 9 8 9 8 10 11 13 12 13 13 13 12 12 13 13 11 10 9 9 8 8 7 7 6 5
6 6 6 5 5 5 5 6 6 6 9 13 12 10 10 8 8 8 8 8 9 9 11 11 12 11 12 12 12 14 11 12 14 14 10 11 9 8 7 7 7 5 5 4
5 6 5 5 6 7 7 9 6 6 7 10 13 11 11 9 9 9 9 8 9 9 10 10 10 10 11 14 15 11 10 9 9 10 8 8 7 6 5 6 4 3 3 3
5 5 5 5 6 6 8 9 7 7 6 9 13 13 11 10 9 9 9 8 8 9 9 11 11 11 11 12 14 11 10 9 8 7 7 8 6 6 4 3 3 2 2 2
4 5 6 6 6 6 8 6 6 6 8 9 13 13 13 10 11 11 8 10 9 9 10 10 11 10 11 14 11 10 8 8 8 7 6 6 4 3 3 2 3 3 3 3
5 6 6 6 7 8 8 6 6 5 8 13 13 13 14 10 10 9 10 9 12 9 12 12 11 12 14 11 10 9 8 8 7 6 5 4 4 4 3 3 3 4 4 3
6 6 8 13 8 7 6 7 10 10 12 10 12 11 13 11 11 11 11 11 12 15 12 10 12 13 8 8 8 7 7 6 5 6 6 4 4 4 4 3 3 3 3 3
7 11 12 7 7 8 10 13 13 13 14 13 11 11 13 10 13 12 10 12 13 16 13 13 13 12 9 7 7 6 5 4 4 3 3 3 3 3 3 3 3 3 2 3
7 7 6 7 11 13 14 15 14 15 15 12 12 12 11 11 10 11 11 13 14 16 11 13 13 10 7 6 6 5 4 4 4 3 3 3 3 3 3 3 3 2 2 2
6 10 12 13 14 16 17 18 15 15 12 12 12 13 11 10 9 11 12 15 15 10 13 13 9 6 5 4 4 4 3 3 3 3 2 2 2 2 2 3 2 2 2 2
12 13 16 15 16 15 13 13 13 11 11 11 11 12 11 11 12 11 14 11 11 14 14 12 7 5 4 4 3 4 4 3 3 3 3 3 3 3 2 2 2 2 3 2
12 13 15 15 11 11 12 11 11 10 9 10 10 11 10 12 12 11 10 13 14 12 11 8 5 4 4 4 4 4 4 3 3 3 3 3 3 3 3 2 2 2 2 3
12 12 13 11 12 12 12 11 10 8 8 7 7 10 11 11 10 12 12 12 12 9 7 5 4 4 4 4 3 3 3 3 3 3 3 3 3 3 3 2 2 2 3 4
12 13 10 10 10 9 8 8 8 7 7 9 7 10 10 8 11 11 8 10 8 6 5 4 4 4 4 3 3 3 3 3 4 3 3 3 2 3 3 4 3 3 3 4